Tracking 19193 objects as of 23-Jun-2018
HD Live streaming from Space Station
objects crossing your sky now

NIMBUS 2 DEB

Track NIMBUS 2 DEB now!
10-day predictions


NORAD ID: 42441
Int'l Code: 1966-040BU
Perigee: 1,110.8 km
Apogee: 1,168.3 km
Inclination: 100.3 °
Period: 108.0 minutes
Semi major axis: 7510 km
RCS: Unknown
Launch date: May 15, 1966
Source: United States (US)
Launch site: AIR FORCE WESTERN TEST RANGE (AFWTR)

Note: This is SATELLITE DEBRIS
aabbcc
Your satellite tracking list
Your tracking list is empty




NASA's NSSDC Master Catalog

Two Line Element Set (TLE):
1 42441U 66040BU  18173.86301175  .00000334  00000-0  76589-3 0  9990
2 42441 100.3197 283.6676 0038248 292.6663  67.0418 13.33807286 73811
Source of the keplerian elements: AFSPC